Regional Weather Roundup
Issued by NWS

Home | Current Version | Previous Version | Graphics & Text | Print | Product List | Glossary On
Versions: 1 2 3 4 5 6 7 8 9 10 11 12 13 14 15 16 17 18 19 20 21 22 23 24 25 26 27
000
ASUS45 KTFX 291210
RWRMT
MONTANA REGIONAL WEATHER ROUNDUP
NATIONAL WEATHER SERVICE GREAT FALLS MT
600 AM MDT WED MAR 29 2017

NOTE: "FAIR" INDICATES FEW OR NO CLOUDS BELOW 12000 FEET WITH NO
SIGNIFICANT WEATHER AND/OR OBSTRUCTIONS TO VISIBILITY.

MTZ001>007-043-291300-
WEST OF THE DIVIDE

CITY           SKY/WX    TMP DP  RH WIND       PRES   REMARKS
KALISPELL      CLOUDY    40  33  76 S6        30.08F
MISSOULA       CLOUDY    40  34  79 CALM      30.13F
BUTTE          CLOUDY    34  25  69 CALM      30.13F
MULLAN PASS    SNOW      29  28  96 VRB5      30.04F VSB 1/4
ANACONDA         N/A     37  25  60 SE3       30.12F
DEER LODGE       N/A     34  28  80 CALM      30.16R
EUREKA           N/A     43  30  61 SE10      30.06F
HAMILTON         N/A     41  30  65 NW7       30.13S
PLAINS           N/A     40  32  73 CALM      30.11F
RONAN            N/A     41  33  73 CALM      30.12F
THOMPSON FALLS   N/A     38  35  89 CALM      30.15F
$$

MTZ008-052>055-291300-
SOUTHWEST MONTANA

CITY           SKY/WX    TMP DP  RH WIND       PRES   REMARKS
BOZEMAN        CLOUDY    30  26  85 SE5       30.13S
DILLON         PTCLDY    34  21  59 S8        30.14S WCI  27
W YELLOWSTONE  CLOUDY    30  27  86 SW9       30.20S WCI  22
ENNIS          MOCLDY    37  25  60 S13       30.18F WCI  29
THREE FORKS      N/A     33  -5  19 CALM      30.11R
TWIN BRIDGES     N/A     32  19  58 E3        30.12R
$$

MTZ009-010-012-014-046-048-049-054-291300-
EAST SLOPES AND CENTRAL MONTANA

CITY           SKY/WX    TMP DP  RH WIND       PRES   REMARKS
CUT BANK       MOCLDY    36  26  67 W16       30.00F WCI  26
GREAT FALLS    CLOUDY    38  26  62 SW10      30.05S WCI  31
MALMSTROM AFB  CLOUDY    40  28  60 SW14      30.05F
HELENA         CLOUDY    44  29  55 W5        30.11S
AUGUSTA        MOCLDY    40  24  53 W21       30.03R
BOWMANS CRNR   CLOUDY    37  27  67 SW23      30.03F WCI  26
CHOTEAU          N/A     37  25  60 W3        30.06R
CONRAD           N/A     36  34  92 SW7       30.04S WCI  30
FAIRFIELD      CLOUDY    38  24  59 S8        30.03S WCI  32
POWER            N/A     35  26  70 SW10      30.04S WCI  27
RAYNESFORD       N/A     41  26  55 SW16      30.06S
$$

MTZ011-013-016-021-045-047-050-051-291300-
NORTH CENTRAL MONTANA

CITY           SKY/WX    TMP DP  RH WIND       PRES   REMARKS
HAVRE          CLOUDY    39  28  64 SW18      30.00F WCI  30
LEWISTOWN      CLOUDY    34  24  67 W5        30.04F
N BAR RANCH      N/A     39  23  52 W9        30.08R
CHINOOK          N/A     39  27  60 W6        30.00S
DENTON           N/A     37  27  67 W15G28    30.01S WCI  28
GEYSER         MOCLDY    39  26  59 W15       30.04R WCI  30
GRASS RANGE    MOCLDY    36  26  66 W5        30.02S
JUDITH GAP       N/A     35  22  58 W8        30.05S WCI  28
STANFORD         N/A     38  25  59 W13       30.03F WCI  30
WINIFRED         N/A     37  26  65 W8        30.03S WCI  30
$$

MTZ017>020-022>027-061-062-291300-
NORTHEAST MONTANA

CITY           SKY/WX    TMP DP  RH WIND       PRES   REMARKS
GLASGOW        CLOUDY    40  28  62 CALM      30.01R
JORDAN           N/A     32  29  88 W5        30.04R
SIDNEY         FOG       30  29  96 CALM      30.06F VSB 1/2
WOLF POINT     CLOUDY    34  31  88 W3        30.03S
MALTA          CLEAR     30  27  86 CALM      30.01S
PLENTYWOOD       N/A     34  34 100 E6        30.01F VSB 1/4 WCI  29
POPLAR           N/A     37  34  87 S3        30.03S
$$

MTZ028>42-056>058-291300-
SOUTHCENTRAL AND SOUTHEAST MONTANA

CITY           SKY/WX    TMP DP  RH WIND       PRES   REMARKS
BAKER          CLEAR     31  29  92 SE5       30.08S
BILLINGS       CLOUDY    39  28  64 SW9       30.08R
LIVINGSTON     CLOUDY    32  22  66 W9        30.10S WCI  24
MILES CITY     CLOUDY    34  31  88 S7        30.06S WCI  28
BIG TIMBER     CLEAR     39  23  52 SW10      30.11R
FORSYTH          N/A     34  34 100 CALM      30.07R
HARLOWTON        N/A     32  23  69 NW8       30.06S WCI  25
LAUREL           N/A     36  18  48 CALM      30.05F
$$

REGIONAL REPORTS...DAKOTAS

CITY           SKY/WX    TMP DP  RH WIND       PRES   REMARKS
WILLISTON      FOG       32  32 100 SW5       30.06S VSB 1/4
MINOT          CLOUDY    45  41  86 SW9       30.06S
DICKINSON      FOG       38  38 100 S12       30.06S VSB 1/2 WCI  30
BEACH            N/A     28  28 100 S5        30.10S
TIOGA          FOG       30  30 100 CALM      30.07S VSB<1/4
WATFORD CITY   FOG       30  30 100 CALM      30.06S VSB 1/4
BISMARCK       CLOUDY    35  34  96 E5        30.14S
GRAND FORKS    MOCLDY    33  31  92 CALM      30.17S
FARGO          CLOUDY    37  33  85 SE6       30.16F
BUFFALO SD       N/A     41  40  96 SW6       30.04S
RAPID CITY     CLOUDY    39  37  92 CALM      30.11S
$$

REGIONAL REPORTS...WYOMING/IDAHO/WASHINGTON

CITY           SKY/WX    TMP DP  RH WIND       PRES   REMARKS
GILLETTE       CLEAR     32  31  96 S5        30.11S
SHERIDAN       CLOUDY    29  25  85 S3        30.08S
BUFFALO WY     CLOUDY    34  22  61 S7        30.10S WCI  28
CODY           CLOUDY    43  22  43 W10G18    30.11S
YELLOWSTONE LA   N/A     25  22  88 CALM      30.20S
IDAHO FALLS    CLOUDY    35  28  75 S8        30.23R WCI  29
SALMON         CLOUDY    28  23  80 CALM      30.16F
BOISE          CLOUDY    41  32  70 E8        30.20S
SPOKANE        LGT RAIN  40  38  93 S7        30.05F
$$

REGIONAL REPORTS...ALBERTA

CITY           SKY/WX    TMP DP  RH WIND       PRES   REMARKS
EDMONTON         N/A     28  27  93 CALM      29.86S VSB 0
CALGARY        PTCLDY    32  18  55 S5        29.89F
LETHBRIDGE     MOCLDY    41  27  56 W21       29.94S
MEDICINE HAT   CLEAR     36  27  69 SW10G17   29.93S WCI  28
WATERTON GATE    N/A     37  27  65 SW13G21     N/A  WCI  29
CARDSTON         N/A     37  25  60 SW7         N/A
MILK RIVER       N/A     37  27  65 W16         N/A  WCI  28
$$

REGIONAL REPORTS...SASKATCHEWAN

CITY           SKY/WX    TMP DP  RH WIND       PRES   REMARKS
SWIFT CURRENT  MOCLDY    36  28  75 SW21      29.87F WCI  24
REGINA         CLOUDY    34  34 100 SE16      29.94F FOG     WCI  23
SASKATOON      MOCLDY    36  32  87 SE8       29.86F WCI  29
CYPRESS HILLS    N/A     37  21  52 W10         N/A  WCI  30
VAL MARIE        N/A     30  25  80 SE2         N/A
ROCKGLEN         N/A     34  27  75 W12         N/A  WCI  25
ASSINIBOIA       N/A     32  32 100 NE3         N/A
$$




USA.gov is the U.S. government's official web portal to all federal, state and local government web resources and services.